DLH267 LIEO-EDDF

Flight info

Callsign DLH267
Flight time 1h 27m
Altitude 36000
Route OKIVA P980 DIKEL DCT RATAP DCT MEGER DCT ERTEV DCT ABESI DCT LADOL T163 EMPAX EMPAX5B
Aircraft A320/M-SDE2E3FGIJ1LORWXYZ/HB1

Departure

Time 2026-05-05 13:09
Airport Olbia Costa Smeralda Airport (LIEO)

Arrival

Time 2026-05-05 14:36
Airport Frankfurt Main Airport (EDDF)
Time Latitude Longitude Altitude Speed Heading
2026-05-05 12:43 40.90269 9.51699 35 ft 0 kts 323°
2026-05-05 13:00 40.90257 9.51711 36 ft 4 kts 319°
2026-05-05 13:01 40.90236 9.51782 33 ft 1 kts 235°
2026-05-05 13:01 40.90237 9.51783 33 ft 0 kts 235°
2026-05-05 13:03 40.90232 9.51775 32 ft 4 kts 234°
2026-05-05 13:03 40.90183 9.51684 36 ft 17 kts 234°
2026-05-05 13:03 40.90163 9.51649 36 ft 0 kts 234°
2026-05-05 13:04 40.90156 9.51636 37 ft 3 kts 234°
2026-05-05 13:05 40.90137 9.51600 37 ft 8 kts 234°
2026-05-05 13:05 40.90092 9.51518 37 ft 11 kts 234°
2026-05-05 13:05 40.90009 9.51513 38 ft 15 kts 170°
2026-05-05 13:05 40.89913 9.51461 39 ft 18 kts 229°
2026-05-05 13:06 40.89834 9.51314 40 ft 19 kts 234°
2026-05-05 13:06 40.89760 9.51173 39 ft 20 kts 237°
2026-05-05 13:06 40.89676 9.51005 42 ft 24 kts 235°
2026-05-05 13:06 40.89571 9.50813 42 ft 28 kts 239°
2026-05-05 13:07 40.89465 9.50601 45 ft 28 kts 234°
2026-05-05 13:07 40.89337 9.50445 46 ft 23 kts 178°
2026-05-05 13:07 40.89268 9.50600 47 ft 21 kts 79°
2026-05-05 13:07 40.89338 9.50751 44 ft 20 kts 59°
2026-05-05 13:08 40.89436 9.50941 43 ft 44 kts 56°
2026-05-05 13:08 40.89752 9.51547 40 ft 113 kts 55°
2026-05-05 13:08 40.90287 9.52619 71 ft 161 kts 60°
2026-05-05 13:08 40.90931 9.53955 488 ft 181 kts 59°
2026-05-05 13:09 40.91657 9.55381 1251 ft 187 kts 58°
2026-05-05 13:09 40.92424 9.56814 1823 ft 199 kts 56°
2026-05-05 13:09 40.93279 9.58395 2115 ft 224 kts 55°
2026-05-05 13:09 40.94209 9.60110 2650 ft 239 kts 56°
2026-05-05 13:10 40.95192 9.61925 3418 ft 246 kts 54°
2026-05-05 13:10 40.96198 9.63785 4214 ft 252 kts 53°
2026-05-05 13:10 40.97413 9.65473 4991 ft 258 kts 31°
2026-05-05 13:10 40.99091 9.66267 5796 ft 259 kts
2026-05-05 13:11 41.00902 9.65920 6299 ft 271 kts 332°
2026-05-05 13:11 41.02503 9.64587 7045 ft 275 kts 322°
2026-05-05 13:11 41.04088 9.63141 7876 ft 278 kts 322°
2026-05-05 13:11 41.05698 9.61682 8722 ft 282 kts 322°
2026-05-05 13:12 41.07323 9.60197 9564 ft 285 kts 318°
2026-05-05 13:12 41.08733 9.58361 10314 ft 287 kts 304°
2026-05-05 13:12 41.09962 9.56144 10580 ft 310 kts 302°
2026-05-05 13:12 41.11252 9.53763 11039 ft 323 kts 302°
2026-05-05 13:13 41.12576 9.51319 11743 ft 329 kts 302°
2026-05-05 13:13 41.13916 9.48847 12515 ft 333 kts 302°
2026-05-05 13:13 41.15278 9.46340 13288 ft 337 kts 303°
2026-05-05 13:13 41.16665 9.43794 14030 ft 342 kts 302°
2026-05-05 13:14 41.18067 9.41218 14674 ft 346 kts 302°
2026-05-05 13:14 41.19480 9.38614 15312 ft 348 kts 302°
2026-05-05 13:14 41.20904 9.35991 15960 ft 351 kts 302°
2026-05-05 13:14 41.22338 9.33349 16591 ft 355 kts 302°
2026-05-05 13:15 41.23753 9.30642 17218 ft 357 kts 300°
2026-05-05 13:15 41.25101 9.27907 17835 ft 360 kts 298°
2026-05-05 13:15 41.26446 9.25088 18434 ft 363 kts 298°
2026-05-05 13:15 41.27792 9.22232 18966 ft 366 kts 298°
2026-05-05 13:16 41.29146 9.19363 19527 ft 368 kts 298°
2026-05-05 13:16 41.30554 9.16501 20117 ft 373 kts 303°
2026-05-05 13:16 41.32375 9.14002 20667 ft 382 kts 317°
2026-05-05 13:16 41.34652 9.12126 21226 ft 391 kts 332°
2026-05-05 13:17 41.37275 9.11035 21719 ft 401 kts 346°
2026-05-05 13:17 41.40089 9.10837 22221 ft 409 kts 358°
2026-05-05 13:17 41.42955 9.10945 22751 ft 412 kts 358°
2026-05-05 13:17 41.45830 9.11053 23252 ft 414 kts 358°
2026-05-05 13:18 41.48721 9.11157 23721 ft 417 kts 357°
2026-05-05 13:18 41.51645 9.11257 24128 ft 420 kts 357°
2026-05-05 13:18 41.54538 9.11352 24530 ft 422 kts 356°
2026-05-05 13:18 41.57484 9.11412 24919 ft 424 kts 355°
2026-05-05 13:19 41.60456 9.11407 25312 ft 426 kts 354°
2026-05-05 13:19 41.63427 9.11365 25715 ft 428 kts 354°
2026-05-05 13:19 41.66422 9.11307 26076 ft 431 kts 353°
2026-05-05 13:19 41.69434 9.11254 26452 ft 434 kts 353°
2026-05-05 13:20 41.72468 9.11212 26840 ft 436 kts 353°
2026-05-05 13:20 41.75515 9.11181 27198 ft 439 kts 353°
2026-05-05 13:20 41.78571 9.11159 27559 ft 441 kts 353°
2026-05-05 13:20 41.81654 9.11140 27893 ft 444 kts 353°
2026-05-05 13:21 41.84761 9.11123 28286 ft 446 kts 353°
2026-05-05 13:21 41.87828 9.11102 28654 ft 448 kts 353°
2026-05-05 13:21 41.90952 9.11077 29015 ft 450 kts 353°
2026-05-05 13:21 41.94136 9.11052 29369 ft 452 kts 353°
2026-05-05 13:22 41.97253 9.11029 29690 ft 455 kts 353°
2026-05-05 13:22 42.00434 9.11006 30033 ft 457 kts 352°
2026-05-05 13:22 42.02547 9.10989 30228 ft 459 kts 352°
2026-05-05 13:22 42.06830 9.10952 30577 ft 461 kts 352°
2026-05-05 13:23 42.10050 9.10926 30833 ft 463 kts 352°
2026-05-05 13:23 42.13281 9.10902 31099 ft 464 kts 352°
2026-05-05 13:23 42.16517 9.10878 31401 ft 466 kts 352°
2026-05-05 13:23 42.19765 9.10854 31720 ft 465 kts 352°
2026-05-05 13:24 42.23001 9.10830 32050 ft 464 kts 352°
2026-05-05 13:24 42.26241 9.10805 32453 ft 464 kts 352°
2026-05-05 13:24 42.29460 9.10784 32804 ft 464 kts 351°
2026-05-05 13:24 42.31599 9.10771 32949 ft 465 kts 352°
2026-05-05 13:25 42.35897 9.10734 33352 ft 465 kts 351°
2026-05-05 13:25 42.39135 9.10708 33809 ft 462 kts 351°
2026-05-05 13:25 42.42339 9.10684 34212 ft 461 kts 351°
2026-05-05 13:25 42.44477 9.10669 34458 ft 460 kts 351°
2026-05-05 13:26 42.48756 9.10640 34865 ft 458 kts 351°
2026-05-05 13:26 42.51947 9.10614 35117 ft 458 kts 351°
2026-05-05 13:26 42.55147 9.10584 35301 ft 458 kts 351°
2026-05-05 13:26 42.58288 9.10556 35580 ft 457 kts 351°
2026-05-05 13:27 42.61462 9.10530 35867 ft 456 kts 351°
2026-05-05 13:27 42.64636 9.10505 36147 ft 455 kts 351°
2026-05-05 13:27 42.67805 9.10482 36422 ft 454 kts 351°
2026-05-05 13:27 42.70972 9.10460 36673 ft 454 kts 352°
2026-05-05 13:28 42.74152 9.10657 36910 ft 459 kts 357°
2026-05-05 13:28 42.76260 9.10906 37059 ft 459 kts 357°
2026-05-05 13:28 42.80515 9.11406 37374 ft 458 kts 357°
2026-05-05 13:28 42.83642 9.11771 37596 ft 457 kts 357°
2026-05-05 13:29 42.86815 9.12138 37847 ft 456 kts 358°
2026-05-05 13:29 42.89980 9.12504 37968 ft 457 kts 357°
2026-05-05 13:29 42.96318 9.13243 37980 ft 456 kts 358°
2026-05-05 13:30 43.02646 9.13988 37981 ft 456 kts 357°
2026-05-05 13:30 43.07906 9.14597 37990 ft 457 kts 357°
2026-05-05 13:31 43.15287 9.15458 37980 ft 457 kts 358°
2026-05-05 13:31 43.21624 9.16212 37981 ft 457 kts 358°
2026-05-05 13:32 43.26904 9.16835 38007 ft 457 kts 358°
2026-05-05 13:32 43.33136 9.16429 37982 ft 441 kts 340°
2026-05-05 13:33 43.38778 9.13653 37974 ft 424 kts 324°
2026-05-05 13:33 43.44028 9.09907 37970 ft 425 kts 325°
2026-05-05 13:34 43.49268 9.06191 37995 ft 427 kts 325°
2026-05-05 13:34 43.54564 9.02439 37976 ft 428 kts 325°
2026-05-05 13:35 43.59877 8.98667 37966 ft 430 kts 326°
2026-05-05 13:35 43.65684 8.96174 37963 ft 448 kts 346°
2026-05-05 13:36 43.68798 8.95966 37992 ft 459 kts 355°
2026-05-05 13:36 43.72051 8.96084 37963 ft 464 kts 355°
2026-05-05 13:36 43.78523 8.96312 37967 ft 472 kts 355°
2026-05-05 13:37 43.85150 8.96521 37971 ft 480 kts 355°
2026-05-05 13:37 43.91887 8.96728 37963 ft 488 kts 356°
2026-05-05 13:38 43.98728 8.96954 37969 ft 491 kts 356°
2026-05-05 13:38 44.05574 8.97184 37970 ft 492 kts 356°
2026-05-05 13:39 44.12433 8.97397 37961 ft 493 kts 356°
2026-05-05 13:39 44.19314 8.97619 37964 ft 494 kts 356°
2026-05-05 13:40 44.26148 8.97844 37972 ft 494 kts 356°
2026-05-05 13:40 44.33035 8.98071 37988 ft 495 kts 356°
2026-05-05 13:41 44.39919 8.98304 37992 ft 495 kts 356°
2026-05-05 13:41 44.46812 8.98537 37990 ft 495 kts 356°
2026-05-05 13:42 44.53654 8.98758 37985 ft 494 kts 356°
2026-05-05 13:42 44.60543 8.98978 37984 ft 494 kts 356°
2026-05-05 13:43 44.67425 8.99204 37985 ft 494 kts 356°
2026-05-05 13:43 44.74302 8.99431 37982 ft 494 kts 356°
2026-05-05 13:44 44.81189 8.99664 37981 ft 494 kts 356°
2026-05-05 13:44 44.88023 8.99896 37987 ft 494 kts 356°
2026-05-05 13:45 44.94912 9.00131 37985 ft 495 kts 356°
2026-05-05 13:45 45.01797 9.00360 37983 ft 495 kts 356°
2026-05-05 13:46 45.08691 9.00591 37984 ft 495 kts 356°
2026-05-05 13:46 45.15584 9.00819 38008 ft 495 kts 356°
2026-05-05 13:47 45.22466 9.01054 38001 ft 495 kts 356°
2026-05-05 13:47 45.29323 9.01282 37994 ft 495 kts 356°
2026-05-05 13:48 45.36218 9.01518 38003 ft 495 kts 356°
2026-05-05 13:48 45.43109 9.01759 37996 ft 495 kts 357°
2026-05-05 13:49 45.50003 9.01996 37995 ft 496 kts 357°
2026-05-05 13:49 45.56909 9.02230 37992 ft 496 kts 357°
2026-05-05 13:50 45.63761 9.02455 37993 ft 496 kts 357°
2026-05-05 13:50 45.70671 9.02704 37987 ft 498 kts 357°
2026-05-05 13:51 45.77607 9.02949 37999 ft 498 kts 357°
2026-05-05 13:51 45.84549 9.03179 38020 ft 499 kts 357°
2026-05-05 13:52 45.91507 9.03417 38033 ft 500 kts 357°
2026-05-05 13:52 45.98454 9.03664 38035 ft 500 kts 357°
2026-05-05 13:53 46.05412 9.03912 38050 ft 500 kts 357°
2026-05-05 13:53 46.12370 9.04150 38042 ft 500 kts 357°
2026-05-05 13:54 46.19330 9.04296 38046 ft 499 kts 355°
2026-05-05 13:54 46.26229 9.04009 38040 ft 498 kts 353°
2026-05-05 13:55 46.33143 9.03554 38027 ft 498 kts 353°
2026-05-05 13:55 46.40076 9.03189 38000 ft 498 kts 354°
2026-05-05 13:56 46.46996 9.02915 37966 ft 497 kts 354°
2026-05-05 13:56 46.53931 9.02646 37966 ft 497 kts 354°
2026-05-05 13:57 46.60846 9.02338 37958 ft 497 kts 354°
2026-05-05 13:57 46.67759 9.02028 37933 ft 497 kts 354°
2026-05-05 13:58 46.74680 9.01728 37922 ft 497 kts 354°
2026-05-05 13:58 46.81568 9.01431 37896 ft 498 kts 354°
2026-05-05 13:59 46.91952 9.00966 37913 ft 497 kts 355°
2026-05-05 14:00 47.01156 9.00558 37882 ft 497 kts 355°
2026-05-05 14:00 47.09242 9.00207 37867 ft 496 kts 355°
2026-05-05 14:01 47.16141 8.99901 37859 ft 496 kts 355°
2026-05-05 14:01 47.23050 8.99588 37860 ft 496 kts 355°
2026-05-05 14:02 47.29954 8.99277 37863 ft 497 kts 355°
2026-05-05 14:02 47.36868 8.98960 37861 ft 497 kts 355°
2026-05-05 14:03 47.43752 8.98649 37861 ft 497 kts 355°
2026-05-05 14:03 47.50666 8.98353 37869 ft 497 kts 356°
2026-05-05 14:04 47.57591 8.98049 37864 ft 497 kts 355°
2026-05-05 14:04 47.64514 8.97731 37857 ft 497 kts 355°
2026-05-05 14:05 47.71425 8.97408 37858 ft 497 kts 356°
2026-05-05 14:05 47.78311 8.97090 37856 ft 497 kts 356°
2026-05-05 14:06 47.85226 8.96776 37854 ft 497 kts 356°
2026-05-05 14:06 47.92148 8.96459 37852 ft 497 kts 356°
2026-05-05 14:07 47.99077 8.96135 37851 ft 498 kts 356°
2026-05-05 14:07 48.06000 8.95815 37807 ft 496 kts 356°
2026-05-05 14:08 48.09440 8.95660 37238 ft 493 kts 356°
2026-05-05 14:08 48.12866 8.95504 36521 ft 492 kts 357°
2026-05-05 14:08 48.16285 8.95383 35820 ft 490 kts
2026-05-05 14:08 48.19663 8.95739 34877 ft 484 kts
2026-05-05 14:09 48.23001 8.96234 33982 ft 477 kts
2026-05-05 14:09 48.26237 8.96735 33042 ft 470 kts
2026-05-05 14:09 48.29459 8.97241 32293 ft 459 kts
2026-05-05 14:09 48.32607 8.97733 31833 ft 451 kts
2026-05-05 14:10 48.35715 8.98216 31334 ft 447 kts
2026-05-05 14:10 48.38799 8.98690 30852 ft 444 kts
2026-05-05 14:10 48.41864 8.99160 30384 ft 440 kts
2026-05-05 14:10 48.44903 8.99620 29900 ft 437 kts
2026-05-05 14:11 48.47914 9.00073 29409 ft 432 kts
2026-05-05 14:11 48.50882 9.00522 28971 ft 426 kts
2026-05-05 14:11 48.53825 9.00968 28552 ft 420 kts
2026-05-05 14:11 48.56721 9.01410 28133 ft 415 kts
2026-05-05 14:12 48.59540 9.01841 27723 ft 410 kts
2026-05-05 14:12 48.62367 9.02277 27296 ft 406 kts
2026-05-05 14:12 48.65152 9.02782 26870 ft 401 kts
2026-05-05 14:12 48.67903 9.03401 26438 ft 397 kts 10°
2026-05-05 14:13 48.70624 9.04083 26020 ft 394 kts 11°
2026-05-05 14:13 48.73311 9.04779 25577 ft 391 kts 11°
2026-05-05 14:13 48.75993 9.05468 25131 ft 389 kts 11°
2026-05-05 14:13 48.78661 9.06138 24696 ft 387 kts 10°
2026-05-05 14:14 48.81315 9.06788 24233 ft 386 kts 10°
2026-05-05 14:14 48.83927 9.07414 23783 ft 384 kts 10°
2026-05-05 14:14 48.86566 9.08040 23301 ft 383 kts
2026-05-05 14:14 48.89204 9.08641 22806 ft 381 kts
2026-05-05 14:15 48.91824 9.09104 22360 ft 378 kts
2026-05-05 14:15 48.94438 9.09470 21912 ft 376 kts
2026-05-05 14:15 48.97038 9.09786 21472 ft 374 kts
2026-05-05 14:15 48.99633 9.10095 21032 ft 371 kts
2026-05-05 14:16 49.02193 9.10418 20589 ft 370 kts
2026-05-05 14:16 49.04752 9.10762 20120 ft 369 kts
2026-05-05 14:16 49.07316 9.11125 19660 ft 368 kts
2026-05-05 14:16 49.09864 9.11495 19202 ft 368 kts
2026-05-05 14:17 49.11557 9.11742 18898 ft 368 kts
2026-05-05 14:17 49.14936 9.12232 18295 ft 368 kts
2026-05-05 14:17 49.17498 9.12597 17784 ft 368 kts
2026-05-05 14:17 49.20042 9.12960 17326 ft 367 kts
2026-05-05 14:18 49.22581 9.13324 16874 ft 366 kts
2026-05-05 14:18 49.24264 9.13566 16572 ft 366 kts
2026-05-05 14:18 49.26785 9.13929 16226 ft 362 kts
2026-05-05 14:18 49.29281 9.14481 15800 ft 360 kts 14°
2026-05-05 14:19 49.31703 9.15350 15431 ft 357 kts 14°
2026-05-05 14:19 49.34121 9.16206 15020 ft 355 kts 13°
2026-05-05 14:19 49.36514 9.17050 14463 ft 350 kts 13°
2026-05-05 14:19 49.38884 9.17885 13767 ft 346 kts 14°
2026-05-05 14:20 49.41208 9.18707 13131 ft 339 kts 14°
2026-05-05 14:20 49.43450 9.19499 12722 ft 325 kts 14°
2026-05-05 14:20 49.45626 9.20268 12283 ft 317 kts 14°
2026-05-05 14:20 49.47774 9.21026 11852 ft 314 kts 14°
2026-05-05 14:21 49.49888 9.21777 11424 ft 311 kts 14°
2026-05-05 14:21 49.51980 9.22523 10984 ft 313 kts 14°
2026-05-05 14:21 49.54105 9.23282 10683 ft 310 kts 14°
2026-05-05 14:21 49.56194 9.24028 10616 ft 308 kts 14°
2026-05-05 14:22 49.58280 9.24775 10512 ft 307 kts 14°
2026-05-05 14:22 49.60358 9.25519 10393 ft 306 kts 14°
2026-05-05 14:22 49.62428 9.26262 10270 ft 305 kts 14°
2026-05-05 14:22 49.64496 9.27006 10154 ft 304 kts 14°
2026-05-05 14:23 49.66556 9.27747 10032 ft 303 kts 14°
2026-05-05 14:23 49.68611 9.28484 9917 ft 303 kts 14°
2026-05-05 14:23 49.70666 9.29219 9792 ft 302 kts 14°
2026-05-05 14:23 49.72709 9.29950 9692 ft 301 kts 14°
2026-05-05 14:24 49.74752 9.30683 9601 ft 301 kts 14°
2026-05-05 14:24 49.76792 9.31416 9501 ft 300 kts 14°
2026-05-05 14:24 49.78817 9.32146 9399 ft 299 kts 14°
2026-05-05 14:24 49.80848 9.32878 9298 ft 299 kts 14°
2026-05-05 14:25 49.82881 9.33303 9120 ft 299 kts 357°
2026-05-05 14:25 49.84925 9.32806 8851 ft 297 kts 348°
2026-05-05 14:25 49.86955 9.32182 8591 ft 296 kts 348°
2026-05-05 14:25 49.88961 9.31556 8339 ft 294 kts 348°
2026-05-05 14:26 49.90963 9.30929 8069 ft 293 kts 348°
2026-05-05 14:26 49.92957 9.30306 7765 ft 291 kts 348°
2026-05-05 14:26 49.94927 9.29693 7469 ft 290 kts 348°
2026-05-05 14:26 49.96905 9.29077 7279 ft 289 kts 347°
2026-05-05 14:27 49.98765 9.27995 7097 ft 285 kts 326°
2026-05-05 14:27 50.00209 9.25940 6875 ft 280 kts 303°
2026-05-05 14:27 50.01220 9.23366 6652 ft 279 kts 298°
2026-05-05 14:27 50.02197 9.20773 6438 ft 278 kts 298°
2026-05-05 14:28 50.03169 9.18185 6221 ft 276 kts 298°
2026-05-05 14:28 50.04136 9.15612 5977 ft 275 kts 298°
2026-05-05 14:28 50.05101 9.13052 5714 ft 274 kts 299°
2026-05-05 14:28 50.06061 9.10506 5466 ft 271 kts 298°
2026-05-05 14:29 50.06992 9.08037 5219 ft 257 kts 298°
2026-05-05 14:29 50.07868 9.05710 4964 ft 241 kts 299°
2026-05-05 14:29 50.08686 9.03538 4714 ft 231 kts 298°
2026-05-05 14:29 50.09487 9.01399 4465 ft 228 kts 298°
2026-05-05 14:30 50.10282 8.99270 4205 ft 227 kts 298°
2026-05-05 14:30 50.11072 8.97162 4025 ft 225 kts 298°
2026-05-05 14:30 50.11788 8.95041 3990 ft 214 kts 286°
2026-05-05 14:30 50.11969 8.92833 3997 ft 201 kts 263°
2026-05-05 14:31 50.11618 8.90771 4003 ft 197 kts 248°
2026-05-05 14:31 50.11142 8.88776 3995 ft 197 kts 248°
2026-05-05 14:31 50.10670 8.86786 3994 ft 197 kts 248°
2026-05-05 14:31 50.10172 8.84702 3828 ft 210 kts 249°
2026-05-05 14:32 50.09678 8.82611 3570 ft 202 kts 248°
2026-05-05 14:32 50.09205 8.80609 3322 ft 197 kts 248°
2026-05-05 14:32 50.08728 8.78584 3043 ft 196 kts 248°
2026-05-05 14:32 50.08267 8.76632 2712 ft 194 kts 249°
2026-05-05 14:33 50.07839 8.74630 2356 ft 192 kts 254°
2026-05-05 14:33 50.07569 8.72624 1960 ft 191 kts 260°
2026-05-05 14:33 50.07365 8.70587 1605 ft 188 kts 259°
2026-05-05 14:33 50.07003 8.68686 1475 ft 182 kts 246°
2026-05-05 14:34 50.06485 8.66953 1203 ft 170 kts 244°
2026-05-05 14:34 50.06090 8.65341 1131 ft 151 kts 251°
2026-05-05 14:34 50.05765 8.63829 973 ft 143 kts 250°
2026-05-05 14:34 50.05425 8.62473 929 ft 137 kts 248°
2026-05-05 14:35 50.05088 8.61112 737 ft 133 kts 251°
2026-05-05 14:35 50.04771 8.59777 574 ft 135 kts 250°
2026-05-05 14:35 50.04459 8.58460 403 ft 133 kts 249°
2026-05-05 14:35 50.04157 8.57198 368 ft 109 kts 248°
2026-05-05 14:36 50.03953 8.56347 358 ft 54 kts 250°
2026-05-05 14:36 50.03893 8.56042 359 ft 23 kts 264°
2026-05-05 14:36 50.03891 8.55809 356 ft 14 kts 276°
2026-05-05 14:36 50.03896 8.55749 357 ft 0 kts 279°
2026-05-05 14:37 50.03897 8.55744 358 ft 1 kts 279°
2026-05-05 14:37 50.03898 8.55735 357 ft 2 kts 279°
2026-05-05 14:37 50.03905 8.55681 350 ft 6 kts 288°
2026-05-05 14:37 50.03931 8.55630 358 ft 6 kts 324°
2026-05-05 14:38 50.03963 8.55623 357 ft 3 kts 17°
2026-05-05 14:38 50.03981 8.55663 357 ft 8 kts 65°
2026-05-05 14:38 50.04008 8.55775 350 ft 14 kts 70°
2026-05-05 14:38 50.04049 8.55948 353 ft 19 kts 70°
2026-05-05 14:39 50.04091 8.56128 357 ft 17 kts 69°
2026-05-05 14:39 50.04129 8.56285 356 ft 15 kts 69°
2026-05-05 14:39 50.04167 8.56438 357 ft 18 kts 69°
2026-05-05 14:39 50.04218 8.56666 363 ft 25 kts 71°
2026-05-05 14:40 50.04278 8.56911 361 ft 25 kts 69°
2026-05-05 14:40 50.04340 8.57171 361 ft 26 kts 70°
2026-05-05 14:40 50.04400 8.57421 364 ft 25 kts 69°
2026-05-05 14:40 50.04443 8.57594 370 ft 13 kts 69°
2026-05-05 14:41 50.04480 8.57743 367 ft 18 kts 69°
2026-05-05 14:41 50.04528 8.57925 364 ft 16 kts 67°
2026-05-05 14:41 50.04601 8.58007 360 ft 14 kts 338°
2026-05-05 14:41 50.04696 8.57957 362 ft 15 kts 351°
2026-05-05 14:42 50.04772 8.58016 358 ft 12 kts 63°
2026-05-05 14:42 50.04801 8.58138 362 ft 13 kts 70°
2026-05-05 14:42 50.04842 8.58309 361 ft 22 kts 70°
2026-05-05 14:42 50.04899 8.58543 366 ft 24 kts 69°
2026-05-05 14:43 50.04947 8.58741 363 ft 13 kts 76°
2026-05-05 14:43 50.04921 8.58782 361 ft 2 kts 151°
2026-05-05 14:43 50.04915 8.58787 364 ft 1 kts 153°
2026-05-05 14:43 50.04909 8.58790 363 ft 0 kts 158°
2026-05-05 14:44 50.04900 8.58796 362 ft 0 kts 159°